User: anonymous   Login
Location: Unspecified
(0.0000°N, 0.0000°E)
Time: 12:40:03
(UTC+01:00)
Language:

Meteor PRIRODA - Orbit

View from above orbital plane
View from above orbital plane
View from above satellite
View from above satellite

Ground track
Ground track

The orbit data is extracted from the following two-line orbital elements,

1 12585U 81065A   15031.96885297  .00004206  00000-0  21978-3 0   101
2 12585 097.3371 020.2042 0016196 183.1082 235.8231 15.16305037830634
Epoch (UTC): 31 January 2015 23:15:08
Eccentricity: 0.0016196
inclination: 97.3371°
perigee height: 506 km
apogee height: 528 km
right ascension of ascending node: 20.2042°
argument of perigee: 183.1082°
revolutions per day: 15.16305037
mean anomaly at epoch: 235.8231°
orbit number at epoch: 83063

The dashed part of the orbit path shows where the satellite is in the earth's shadow,  

DLR